Location: Writing-on-Stone Provincial Park
(49.0825°N, 111.6163°W)
Time: 22:04:06
(UTC-07:00)

Daily predictions for brighter satellites

Satellite Brightness Start Highest point End
(mag) Time Altitude Azimuth Time Altitude Azimuth Time Altitude Azimuth
SL-16 R/B 4.4 17:33:22 10° N 17:38:29 27° WNW 17:43:36 10° WSW
Cosmos 2360 Rocket 3.4 17:33:34 10° WSW 17:38:50 40° NW 17:44:08 10° NNE
ATLAS 3B R/B 4.1 17:33:01 10° WNW 17:38:55 25° N 17:44:37 10° NE
Cosmos 2058 4.0 17:36:17 10° SE 17:39:39 25° E 17:43:03 10° NNE
Cosmos 1980 Rocket 4.4 17:38:55 10° NW 17:41:04 12° NNW 17:43:14 10° N
CORIOLIS 4.1 17:36:24 10° SSE 17:41:43 70° ENE 17:47:06 10° N
Lacrosse 5 2.8 17:37:20 10° WNW 17:42:01 36° N 17:46:43 10° ENE
ATLAS 5 CENTAUR R/B 3.7 17:38:13 10° NW 17:42:15 20° NNE 17:46:33 10° ENE
Cosmos 2333 4.4 17:37:38 10° SSW 17:43:14 78° WNW 17:48:53 10° NNE
Cosmos 1900 4.4 17:39:19 10° NNW 17:44:13 60° NE 17:49:10 10° SE
Cosmos 1461 4.5 17:42:25 10° SSE 17:45:17 18° ESE 17:48:06 10° ENE
Cosmos 1980 3.9 17:40:04 10° S 17:45:33 53° ESE 17:51:05 10° NE
USA 215 3.4 17:43:47 10° E 17:50:12 60° NNE 17:56:38 10° WNW
Cosmos 1500 Rocket 3.5 17:46:31 10° S 17:50:49 67° E 17:55:11 10° NNE
Cosmos 1626 3.9 17:48:51 10° ESE 17:50:58 15° E 17:53:07 10° NE
CZ-4 R/B 4.4 17:47:27 10° SSE 17:51:32 64° ENE 17:55:39 10° N
Lacrosse 5 rocket 2.8 17:50:06 10° WNW 17:53:35 37° SW 17:57:12 10° SSE
BREEZE-M DEB (TANK) 3.4 17:52:47 10° SSW 17:54:54 18° SSE 17:56:34 10° ESE
Cosmos 332 Rocket 4.0 17:50:54 10° SSW 17:55:44 75° WNW 18:00:39 10° NNE
Cosmos 44 3.5 17:51:32 10° SSW 17:56:42 65° SE 18:01:38 10° NE
Cosmos 1943 Rocket 4.0 17:57:55 10° N 18:00:15 13° NNE 18:02:35 10° NE
Cosmos 1726 2.2 17:57:04 10° N 18:00:51 86° W 18:04:38 10° S
CZ-2C R/B 3.0 17:57:04 10° S 18:01:56 63° WSW 18:06:40 10° NNW
Cosmos 2219 Rocket 2.3 17:56:36 10° SSW 18:02:15 82° WNW 18:07:56 10° NNE
NOSS 0 Rocket 4.0 17:57:00 10° SSW 18:03:13 75° ESE 18:09:26 10° NNE
ALOS 3.6 18:02:35 10° ESE 18:05:42 18° ENE 18:08:50 10° NNE
Cosmos 1633 Rocket 4.4 18:04:31 10° SE 18:07:41 20° E 18:10:51 10° NE
Cosmos 1455 3.1 18:05:25 10° NNE 18:08:43 27° ENE 18:12:01 10° SE
Cosmos 1328 3.7 18:04:47 10° S 18:08:43 87° ESE 18:12:42 10° N
Cosmos 1674 4.3 18:05:31 10° SW 18:09:07 37° WNW 18:12:45 10° N
Cosmos 2333 Rocket 2.2 18:03:42 10° SSW 18:09:22 90° ESE 18:15:05 10° NNE
COSMOS 2441 4.4 18:06:02 10° SSE 18:10:54 89° WSW 18:15:46 10° NNW
Cosmos 2322 Rocket 4.4 18:07:59 10° WNW 18:11:14 15° NNW 18:14:29 10° N
Abrixas 3.4 18:09:41 10° SW 18:12:25 36° SSE 18:14:25 16° E
Cosmos 2278 Rocket 3.2 18:07:25 10° NW 18:12:55 51° WSW 18:18:23 10° S
MSX 4.2 18:12:18 10° S 18:18:00 71° WSW 18:23:46 10° NNW
Cosmos 1242 Rocket 3.9 18:16:30 10° NNE 18:18:58 18° ENE 18:19:08 18° ENE
CENTAUR R/B 3.3 18:13:58 10° WSW 18:20:09 52° NW 18:27:14 10° NE
SMAP 4.3 18:16:58 10° S 18:21:27 47° W 18:25:58 10° NNW
Cosmos 1184 Rocket 4.2 18:19:10 10° SE 18:21:40 20° E 18:22:06 19° E
Cosmos 1703 3.6 18:18:41 10° SSE 18:22:20 40° E 18:26:01 10° NNE
USA 116 3.8 18:19:33 10° N 18:22:40 55° WNW 18:25:43 10° SSW
Cosmos 371 Rocket 3.9 18:18:53 10° SW 18:23:37 57° WNW 18:28:22 10° NNE
CZ-4 R/B 3.5 18:22:25 10° SSW 18:25:52 30° W 18:29:23 10° NNW
SJ-6B 3.4 18:23:16 10° SE 18:27:04 37° ENE 18:30:54 10° N
Cosmos 1300 4.1 18:25:08 10° NNW 18:28:47 42° W 18:32:25 10° SSW
Cosmos 1707 Rocket 3.5 18:24:36 10° N 18:28:55 61° ENE 18:33:12 10° SSE
COSMO-SKYMED 1 2.6 18:26:57 10° NNE 18:31:17 61° E 18:35:34 10° S
Spot 2 Rocket 4.3 18:28:03 10° ESE 18:32:21 29° ENE 18:36:41 10° N
Cosmos 2151 3.3 18:28:43 10° SSW 18:32:54 69° WNW 18:37:07 10° N
YAOGAN 1 4.2 18:29:41 10° SSW 18:33:44 38° W 18:37:49 10° NNW
Iridium 4 Rocket 4.0 18:31:43 10° SE 18:35:16 25° E 18:37:08 19° NE
Cosmos 2084 Rocket 4.1 18:32:19 10° NNW 18:35:44 30° NE 18:36:52 25° ENE
Thor Agena Rocket 3.9 18:34:51 10° N 18:40:05 67° WNW 18:45:12 10° SSW
Cosmos 2369 Rocket 3.0 18:35:27 10° NNW 18:40:27 30° NE 18:42:51 22° E
Cosmos 2237 Rocket 2.5 18:35:01 10° SW 18:40:38 70° WNW 18:46:19 10° NNE
FREGAT/IRIS 2.9 18:39:30 10° SE 18:42:24 42° ENE 18:45:21 10° N
Cosmos 1666 Rocket 3.7 18:39:24 10° S 18:43:36 50° E 18:47:53 10° NNE
FAST Rocket 4.3 18:42:09 10° S 18:44:41 47° E 18:46:09 25° NNE
SL-19 R/B 4.4 18:40:03 10° SE 18:45:33 50° ENE 18:50:55 10° N
Cosmos 44 Rocket 4.4 18:42:10 10° WSW 18:47:01 42° NW 18:51:14 13° NNE
Cosmos 1538 Rocket 4.1 18:43:25 10° S 18:48:37 59° ESE 18:53:06 14° NNE
SL-14 R/B 4.5 18:45:05 10° SSW 18:48:53 44° WNW 18:52:46 10° N
SL-16 R/B 2.1 18:43:31 10° SSW 18:49:07 68° ESE 18:53:50 15° NE
Cosmos 1484 Rocket 4.2 18:46:25 10° S 18:50:12 42° W 18:54:04 10° NNW
COSMOS 2428 4.5 18:47:08 10° WSW 18:51:57 27° NW 18:56:47 10° NNE
Cosmos 1340 Rocket 3.1 18:49:09 10° SSW 18:53:04 66° WNW 18:56:59 10° N
Meteor 1-28 Rocket 3.0 18:49:36 11° NNE 18:53:15 76° E 18:56:59 10° S
Resurs 1-3 4.2 18:53:22 31° E 18:54:05 33° ENE 18:58:01 10° N
Resurs 01 Rocket 2.0 18:50:01 10° SE 18:54:09 40° ENE 18:58:18 10° N
TIMED 4.4 18:50:34 10° NNW 18:54:59 77° ENE 18:59:21 10° SSE
Cosmos 304 Rocket 3.8 18:52:27 10° SSW 18:57:16 83° WNW 19:01:36 13° NNE
Lacrosse 4 Rocket 1.2 18:53:49 10° NW 18:57:54 87° WSW 19:01:45 11° SSE
Blok-2BL 3.1 18:55:55 10° NW 18:59:16 67° NE 18:59:40 59° E
Cosmos 1680 Rocket 4.4 18:58:31 10° SSE 19:02:29 29° ESE 19:02:29 29° ESE
Cosmos 1869 3.2 18:59:42 10° N 19:03:46 70° E 19:07:48 10° SSE
Aureole 2 Rocket 4.0 19:01:16 10° SW 19:04:59 42° WNW 19:08:46 11° N
Cosmos 1867 4.1 19:00:54 10° NNW 19:06:03 39° NE 19:07:15 35° ENE
CZ-4C R/B 3.6 19:00:35 10° NW 19:06:24 32° NNE 19:08:40 26° NE
FENGYUN 3A 3.5 19:09:08 10° SSE 19:14:27 67° ENE 19:19:49 10° N
METEOR-M 4.4 19:09:16 10° S 19:14:36 72° WSW 19:19:59 10° NNW
Cosmos 1470 Rocket 4.2 19:12:31 10° SSE 19:15:29 36° SE 19:15:29 36° SE
Cosmos 2242 Rocket 3.7 19:16:22 10° NNW 19:20:48 76° W 19:25:13 10° S
Cosmos 773 Rocket 3.8 19:17:46 10° SSW 19:22:56 76° ESE 19:25:16 34° NNE
Cosmos 1461 3.2 19:19:58 10° SW 19:24:04 61° NW 19:25:04 45° N
Cosmos 1626 3.1 19:22:20 10° SSW 19:25:57 47° WNW 19:28:54 15° N
Lacrosse 5 2.6 19:21:15 10° NW 19:25:59 38° NNE 19:26:32 37° NNE
ATLAS 5 CENTAUR R/B 2.8 19:23:03 10° NW 19:28:26 40° NE 19:28:58 40° NE
S3M 4.3 19:24:03 10° N 19:29:51 43° ENE 19:29:51 43° ENE
ATLAS 3B R/B 3.7 19:25:51 10° NW 19:31:57 29° NNE 19:33:09 27° NE
USA 215 3.6 19:28:15 18° SE 19:33:13 64° SW 19:39:45 10° WNW
Sich 1 3.8 19:30:14 10° SSW 19:34:35 54° WNW 19:38:56 10° N
Nadezhda 4 Rocket 4.3 19:28:43 10° SSW 19:34:59 70° WNW 19:41:20 10° N
Cosmos 1356 Rocket 4.5 19:32:35 10° SW 19:36:23 42° WNW 19:39:19 16° N
Cosmos 2026 Rocket 3.9 19:32:37 10° S 19:38:39 58° E 19:40:54 37° NE
ALOS 2.5 19:38:00 10° S 19:42:39 70° WSW 19:47:20 10° NNW
Cosmos 1455 4.5 19:41:12 10° NNW 19:44:22 25° W 19:47:32 10° SW
Cosmos 1633 Rocket 4.0 19:40:53 10° SSW 19:45:08 47° WNW 19:48:43 14° N
Aureole 1 Rocket 4.1 19:39:18 10° SSW 19:45:10 83° WNW 19:52:42 11° NNE
Cosmos 1943 Rocket 2.9 19:40:18 10° NNW 19:44:17 37° NNE 19:44:17 37° NNE
Cosmos 2219 Rocket 4.3 19:42:59 10° W 19:47:07 20° NW 19:51:13 10° N
Cosmos 292 Rocket 4.2 19:49:07 10° SSW 19:52:44 53° SSW 19:52:44 53° SSW
Cosmos 1603 3.5 19:48:19 10° SSW 19:53:56 81° ESE 19:54:02 81° E
Meteor 2-20 4.3 19:47:56 10° S 20:01:28 - NNE 19:53:36 66° ESE
Cosmos 1242 Rocket 4.2 19:50:55 10° NNW 19:53:29 31° WNW 19:53:29 31° WNW
Cosmos 2333 Rocket 4.2 19:50:06 10° W 19:54:27 22° NW 19:58:34 11° N
Cosmos 2263 4.2 19:50:41 10° NNW 19:55:38 62° NNE 19:55:38 62° NNE
Cosmos 1092 Rocket 4.3 19:51:13 10° SSW 19:57:31 66° WNW 20:03:51 10° N
Cosmos 1553 Rocket 3.9 19:51:57 10° N 19:57:35 65° NE 19:57:35 65° NE
Cosmos 972 Rocket 4.1 19:54:24 10° NNW 19:59:37 78° WSW 20:00:40 59° S
Cosmos 1862 Rocket 4.4 19:59:51 10° NNW 20:04:05 47° W 20:04:40 44° WSW
Spot 2 Rocket 4.5 20:06:20 10° S 20:11:08 45° W 20:16:00 10° NNW
CENTAUR R/B 4.2 20:06:49 10° WNW 20:12:33 27° N 20:14:43 24° NNE
Cosmos 2056 Rocket 4.4 20:07:50 10° NNW 20:11:02 39° NNW 20:11:02 39° NNW
USA 229 DEB 3.7 20:14:23 10° SW 20:21:16 75° NW 20:22:08 67° N
USA 229 3.7 20:14:29 10° SW 20:21:22 76° NW 20:22:11 68° N
Cosmos 2369 Rocket 2.6 20:19:17 10° NW 20:24:42 58° WSW 20:24:42 58° WSW
Cosmos 2237 Rocket 4.5 20:22:00 10° W 20:25:48 18° NW 20:28:44 13° N
Resurs 01 Rocket 3.7 20:27:18 11° SSW 20:30:45 26° W 20:34:29 10° NW
SL-16 R/B 4.0 20:28:57 10° WSW 20:33:44 27° NW 20:35:45 22° NNW
CZ-4C R/B 3.4 20:49:04 10° NW 20:53:53 50° NNW 20:53:53 50° NNW
Lacrosse 5 4.3 21:04:22 10° NW 21:05:45 19° NW 21:05:45 19° NW
ATLAS 5 CENTAUR R/B 3.9 21:07:39 10° NW 21:10:32 30° WNW 21:10:32 30° WNW
ATLAS 3B R/B 4.1 21:16:58 10° NW 21:20:25 31° NNW 21:20:25 31° NNW
Cosmos 1943 Rocket 4.5 21:24:12 10° NW 21:25:50 19° NW 21:25:50 19° NW
